OK,54,54,930,54,2014-10-01T01:40:00,0,28072700,197734
OK,54,54,930,54,2014-10-01T01:45:00,0,28073147,197734
OK,54,54,930,54,2014-10-01T01:50:00,0,28073595,197734
OK,54,54,930,54,2014-10-01T01:55:00,0,28073913,197734
OK,54,54,930,54,2014-10-01T02:00:00,0,28074362,197734
OK,54,54,930,54,2014-10-01T02:05:00,0,28074803,197734
OK,54,54,930,54,2014-10-01T02:10:00,0,28075251,197734
OK,54,54,930,54,2014-10-01T02:15:00,0,28075700,197734
OK,54,54,930,54,2014-10-01T02:20:00,0,28076083,197734
OK,54,54,930,54,2014-10-01T02:25:00,0,28076532,197734
OK,54,54,930,54,2014-10-01T02:30:00,0,28076981,197734
OK,54,54,930,54,2014-10-01T02:35:00,0,28077430,197734
OK,54,54,930,54,2014-10-01T02:40:00,0,28077833,197734
OK,54,54,930,54,2014-10-01T02:45:00,0,28078282,197734
OK,54,54,930,54,2014-10-01T02:50:00,0,28078727,197734
OK,54,54,930,54,2014-10-01T02:55:00,0,28079176,197734
OK,54,54,930,54,2014-10-01T03:00:00,0,28079618,197734
OK,54,54,930,54,2014-10-01T03:05:00,0,28080067,197734
OK,54,54,930,54,2014-10-01T03:10:00,0,28080401,197734
OK,54,54,930,54,2014-10-01T03:15:00,0,28080850,197734
OK,54,54,930,54,2014-10-01T03:20:00,0,28081299,197734
OK,54,54,930,54,2014-10-01T03:25:00,0,28081746,197734
OK,54,54,930,54,2014-10-01T03:30:00,0,28082195,197734
OK,54,54,930,54,2014-10-01T03:35:00,0,28082628,197734
OK,54,54,930,54,2014-10-01T03:40:00,0,28083060,197734
OK,54,54,930,54,2014-10-01T03:45:00,0,28083509,197734
OK,54,54,930,54,2014-10-01T03:50:00,0,28083958,197734
OK,54,54,930,54,2014-10-01T03:55:00,0,28084399,197734
OK,54,54,930,54,2014-10-01T04:00:00,0,28084824,197734
OK,54,54,930,54,2014-10-01T04:05:00,0,28085273,197734
OK,54,54,930,54,2014-10-01T04:10:00,0,28085718,197734
OK,54,54,930,54,2014-10-01T04:15:00,0,28086167,197734
OK,54,54,930,54,2014-10-01T04:20:00,0,28086609,197734
OK,54,54,930,54,2014-10-01T04:25:00,0,28087058,197734
OK,80,36,930,80,2014-10-01T04:30:00,2,28087503,197734
OK,76,38,930,76,2014-10-01T04:35:00,0,28087952,197734
OK,107,27,930,107,2014-10-01T04:40:00,1,28088376,197734
OK,148,19,930,148,2014-10-01T04:45:00,1,28088825,197734
OK,99,29,930,99,2014-10-01T04:50:00,3,28089255,197734
OK,93,31,930,93,2014-10-01T04:55:00,3,28089704,197734
OK,84,34,930,84,2014-10-01T05:00:00,2,28090153,197734
OK,87,33,930,87,2014-10-01T05:05:00,2,28090501,197734
OK,102,28,930,102,2014-10-01T05:10:00,2,28090946,197734
OK,103,28,930,103,2014-10-01T05:15:00,2,28091395,197734
OK,99,29,930,99,2014-10-01T05:20:00,5,28091812,197734
OK,88,33,930,88,2014-10-01T05:25:00,3,28092261,197734
OK,142,20,930,142,2014-10-01T05:30:00,2,28092705,197734
OK,143,20,930,143,2014-10-01T05:35:00,5,28093146,197734
OK,150,19,930,150,2014-10-01T05:40:00,5,28093577,197734
OK,243,12,930,243,2014-10-01T05:45:00,7,28094026,197734
OK,265,11,930,265,2014-10-01T05:50:00,6,28094437,197734
OK,295,9,930,295,2014-10-01T05:55:00,5,28094882,197734
OK,340,8,930,340,2014-10-01T06:00:00,6,28095329,197734
OK,363,8,930,363,2014-10-01T06:05:00,6,28095778,197734
OK,364,8,930,364,2014-10-01T06:10:00,5,28096191,197734
OK,331,8,930,331,2014-10-01T06:15:00,6,28096640,197734
OK,268,10,930,268,2014-10-01T06:20:00,9,28097074,197734
OK,210,13,930,210,2014-10-01T06:25:00,8,28097523,197734
OK,165,17,930,165,2014-10-01T06:30:00,5,28097972,197734
OK,106,27,930,106,2014-10-01T06:35:00,3,28098409,197734
OK,78,37,930,78,2014-10-01T06:40:00,2,28098853,197734
OK,82,35,930,82,2014-10-01T06:45:00,1,28099301,197734
OK,82,35,930,82,2014-10-01T06:50:00,0,28099644,197734
OK,85,34,930,85,2014-10-01T06:55:00,1,28100093,197734
OK,65,45,930,65,2014-10-01T07:00:00,3,28100400,197734
OK,63,46,930,63,2014-10-01T07:05:00,2,28100849,197734
OK,65,45,930,65,2014-10-01T07:10:00,0,28101220,197734
OK,57,51,930,57,2014-10-01T07:15:00,3,28101669,197734
OK,57,51,930,57,2014-10-01T07:20:00,3,28102105,197734
OK,57,51,930,57,2014-10-01T07:25:00,0,28102554,197734
OK,57,51,930,57,2014-10-01T07:30:00,0,28102982,197734
OK,114,25,930,114,2014-10-01T07:35:00,1,28103428,197734
OK,114,25,930,114,2014-10-01T07:40:00,1,28103873,197734
OK,57,51,930,57,2014-10-01T07:45:00,0,28104318,197734
OK,107,27,930,107,2014-10-01T07:50:00,2,28104759,197734
OK,78,37,930,78,2014-10-01T07:55:00,2,28105204,197734
OK,62,47,930,62,2014-10-01T08:00:00,1,28105644,197734
OK,49,59,930,49,2014-10-01T08:05:00,1,28106093,197734
OK,92,31,930,92,2014-10-01T08:10:00,1,28106530,197734
OK,92,31,930,92,2014-10-01T08:15:00,1,28106936,197734
OK,65,45,930,65,2014-10-01T08:20:00,1,28107368,197734
OK,55,53,930,55,2014-10-01T08:25:00,2,28107817,197734
OK,73,40,930,73,2014-10-01T08:30:00,2,28108256,197734
OK,101,28,930,101,2014-10-01T08:35:00,1,28108705,197734
OK,88,33,930,88,2014-10-01T08:40:00,1,28109133,197734
OK,123,23,930,123,2014-10-01T08:45:00,1,28109582,197734
OK,112,26,930,112,2014-10-01T08:50:00,3,28109925,197734
OK,109,26,930,109,2014-10-01T08:55:00,2,28110374,197734
OK,107,27,930,107,2014-10-01T09:00:00,1,28110797,197734
OK,107,27,930,107,2014-10-01T09:05:00,0,28111246,197734
OK,79,37,930,79,2014-10-01T09:10:00,1,28111675,197734
OK,79,37,930,79,2014-10-01T09:15:00,0,28112124,197734
OK,79,37,930,79,2014-10-01T09:20:00,0,28112465,197734
OK,79,37,930,79,2014-10-01T09:25:00,0,28112914,197734
OK,79,37,930,79,2014-10-01T09:30:00,0,28113338,197734
OK,79,37,930,79,2014-10-01T09:35:00,0,28113787,197734
OK,79,37,930,79,2014-10-01T09:40:00,0,28114219,197734
OK,135,21,930,135,2014-10-01T09:45:00,1,28114668,197734
OK,118,24,930,118,2014-10-01T09:50:00,2,28115022,197734
OK,136,21,930,136,2014-10-01T09:55:00,2,28115471,197734
OK,171,17,930,171,2014-10-01T10:00:00,1,28115883,197734
OK,171,17,930,171,2014-10-01T10:05:00,0,28116332,197734
OK,171,17,930,171,2014-10-01T10:10:00,0,28116740,197734
OK,141,20,930,141,2014-10-01T10:15:00,1,28117189,197734
OK,141,20,930,141,2014-10-01T10:20:00,1,28117614,197734
OK,141,20,930,141,2014-10-01T10:25:00,0,28118063,197734
OK,121,24,930,121,2014-10-01T10:30:00,2,28118508,197734
OK,109,26,930,109,2014-10-01T10:35:00,4,28118955,197734
OK,84,34,930,84,2014-10-01T10:40:00,1,28119399,197734
OK,84,34,930,84,2014-10-01T10:45:00,0,28119847,197734
OK,83,35,930,83,2014-10-01T10:50:00,1,28120295,197734
OK,100,29,930,100,2014-10-01T10:55:00,2,28120744,197734
OK,118,24,930,118,2014-10-01T11:00:00,1,28121127,197734
OK,118,24,930,118,2014-10-01T11:05:00,0,28121576,197734
OK,118,24,930,118,2014-10-01T11:10:00,0,28122014,197734
OK,70,41,930,70,2014-10-01T11:15:00,0,28122463,197734
OK,75,39,930,75,2014-10-01T11:20:00,1,28122904,197734
OK,75,39,930,75,2014-10-01T11:25:00,0,28123353,197734
OK,75,39,930,75,2014-10-01T11:30:00,0,28123785,197734
OK,94,31,930,94,2014-10-01T11:35:00,1,28124234,197734
OK,78,37,930,78,2014-10-01T11:40:00,2,28124636,197734
OK,62,47,930,62,2014-10-01T11:45:00,3,28125085,197734
OK,86,34,930,86,2014-10-01T11:50:00,2,28125514,197734
OK,39,75,930,39,2014-10-01T11:55:00,0,28125963,197734
OK,125,23,930,125,2014-10-01T12:00:00,2,28126315,197734
OK,138,21,930,138,2014-10-01T12:05:00,3,28126764,197734
OK,79,37,930,79,2014-10-01T12:10:00,3,28127213,197734
OK,77,38,930,77,2014-10-01T12:15:00,3,28127662,197734
OK,90,32,930,90,2014-10-01T12:20:00,2,28128090,197734
OK,104,28,930,104,2014-10-01T12:25:00,0,28128539,197734
OK,104,28,930,104,2014-10-01T12:30:00,0,28128974,197734
OK,49,59,930,49,2014-10-01T12:35:00,1,28129423,197734
OK,49,59,930,49,2014-10-01T12:40:00,1,28129857,197734
OK,144,20,930,144,2014-10-01T12:45:00,2,28130306,197734
OK,144,20,930,144,2014-10-01T12:50:00,2,28130734,197734
OK,209,14,930,209,2014-10-01T12:55:00,2,28131183,197734
OK,208,14,930,208,2014-10-01T13:00:00,3,28131620,197734
OK,87,33,930,87,2014-10-01T13:05:00,2,28132069,197734
OK,75,39,930,75,2014-10-01T13:10:00,6,28132507,197734
OK,75,39,930,75,2014-10-01T13:15:00,6,28132954,197734
OK,128,22,930,128,2014-10-01T13:20:00,1,28133392,197734
OK,128,22,930,128,2014-10-01T13:25:00,0,28133841,197734
OK,128,22,930,128,2014-10-01T13:30:00,0,28134280,197734
OK,186,15,930,186,2014-10-01T13:35:00,1,28134729,197734
OK,184,15,930,184,2014-10-01T13:40:00,1,28135148,197734
OK,186,15,930,186,2014-10-01T13:45:00,0,28135597,197734
OK,186,15,930,186,2014-10-01T13:50:00,0,28136034,197734
OK,186,15,930,186,2014-10-01T13:55:00,0,28136483,197734
OK,210,13,930,210,2014-10-01T14:00:00,1,28136923,197734
OK,210,13,930,210,2014-10-01T14:05:00,1,28137372,197734
OK,210,13,930,210,2014-10-01T14:10:00,0,28137806,197734
OK,210,13,930,210,2014-10-01T14:15:00,0,28138255,197734
OK,210,13,930,210,2014-10-01T14:20:00,0,28138683,197734
OK,210,13,930,210,2014-10-01T14:25:00,0,28139132,197734
OK,256,11,930,256,2014-10-01T14:30:00,2,28139543,197734
OK,256,11,930,256,2014-10-01T14:35:00,2,28139992,197734
OK,247,11,930,247,2014-10-01T14:40:00,1,28140434,197734
OK,173,16,930,173,2014-10-01T14:45:00,2,28140883,197734
OK,172,17,930,172,2014-10-01T14:50:00,2,28141309,197734
OK,233,12,930,233,2014-10-01T14:55:00,4,28141758,197734
OK,222,13,930,222,2014-10-01T15:00:00,3,28142186,197734
OK,189,15,930,189,2014-10-01T15:05:00,1,28142635,197734
OK,189,15,930,189,2014-10-01T15:10:00,1,28143062,197734
OK,219,13,930,219,2014-10-01T15:15:00,2,28143511,197734
OK,122,23,930,122,2014-10-01T15:20:00,2,28143959,197734
OK,89,32,930,89,2014-10-01T15:25:00,2,28144408,197734
OK,100,29,930,100,2014-10-01T15:30:00,1,28144830,197734
OK,100,29,930,100,2014-10-01T15:35:00,0,28145243,197734
OK,100,29,930,100,2014-10-01T15:40:00,0,28145692,197734
OK,100,29,930,100,2014-10-01T15:45:00,0,28146141,197734
OK,96,30,930,96,2014-10-01T15:50:00,1,28146590,197734
OK,96,30,930,96,2014-10-01T15:55:00,1,28146998,197734
OK,45,65,930,45,2014-10-01T16:00:00,1,28147442,197734
OK,42,69,930,42,2014-10-01T16:05:00,2,28147891,197734
OK,40,73,930,40,2014-10-01T16:10:00,0,28148292,197734
OK,124,23,930,124,2014-10-01T16:15:00,2,28148741,197734
OK,124,23,930,124,2014-10-01T16:20:00,2,28149180,197734
OK,97,30,930,97,2014-10-01T16:25:00,2,28149629,197734
OK,113,25,930,113,2014-10-01T16:30:00,1,28150055,197734
OK,113,25,930,113,2014-10-01T16:35:00,0,28150504,197734
OK,113,25,930,113,2014-10-01T16:40:00,0,28150922,197734
OK,113,25,930,113,2014-10-01T16:45:00,0,28151371,197734
OK,113,25,930,113,2014-10-01T16:50:00,0,28151820,197734
OK,102,28,930,102,2014-10-01T17:00:00,1,28152269,197734
OK,102,28,930,102,2014-10-01T17:05:00,0,28152715,197734
OK,120,24,930,120,2014-10-01T17:10:00,1,28153162,197734
OK,120,24,930,120,2014-10-01T17:15:00,1,28153611,197734
OK,155,18,930,155,2014-10-01T17:20:00,1,28154021,197734
OK,155,18,930,155,2014-10-01T17:25:00,1,28154470,197734
OK,81,36,930,81,2014-10-01T17:30:00,2,28154912,197734
OK,56,52,930,56,2014-10-01T17:35:00,1,28155360,197734
OK,56,52,930,56,2014-10-01T17:40:00,0,28155778,197734
OK,56,52,930,56,2014-10-01T17:45:00,0,28156227,197734
OK,56,52,930,56,2014-10-01T17:50:00,0,28156676,197734
OK,56,52,930,56,2014-10-01T17:55:00,0,28157114,197734
OK,56,52,930,56,2014-10-01T18:00:00,0,28157544,197734
OK,56,52,930,56,2014-10-01T18:05:00,0,28157992,197734
OK,56,52,930,56,2014-10-01T18:10:00,0,28158436,197734
OK,56,52,930,56,2014-10-01T18:15:00,0,28158882,197734
OK,56,52,930,56,2014-10-01T18:20:00,0,28159328,197734
OK,104,28,930,104,2014-10-01T18:25:00,1,28159663,197734
OK,104,28,930,104,2014-10-01T18:30:00,1,28160112,197734
OK,104,28,930,104,2014-10-01T18:35:00,0,28160561,197734
OK,104,28,930,104,2014-10-01T18:40:00,0,28160999,197734
OK,104,28,930,104,2014-10-01T18:45:00,0,28161448,197734
OK,104,28,930,104,2014-10-01T18:50:00,0,28161865,197734
OK,104,28,930,104,2014-10-01T18:55:00,0,28162314,197734
OK,96,30,930,96,2014-10-01T19:00:00,1,28162708,197734
OK,87,33,930,87,2014-10-01T19:05:00,2,28163147,197734
OK,79,37,930,79,2014-10-01T19:10:00,1,28163595,197734
OK,79,37,930,79,2014-10-01T19:15:00,0,28164044,197734
OK,79,37,930,79,2014-10-01T19:20:00,0,28164475,197734
OK,79,37,930,79,2014-10-01T19:25:00,0,28164924,197734
OK,79,37,930,79,2014-10-01T19:30:00,0,28165349,197734
OK,79,37,930,79,2014-10-01T19:35:00,0,28165797,197734
OK,76,38,930,76,2014-10-01T19:40:00,3,28166238,197734
OK,76,38,930,76,2014-10-01T19:45:00,3,28166600,197734
OK,70,41,930,70,2014-10-01T19:50:00,1,28167049,197734
OK,70,41,930,70,2014-10-01T19:55:00,0,28167478,197734
OK,70,41,930,70,2014-10-01T20:00:00,0,28167911,197734
OK,70,41,930,70,2014-10-01T20:05:00,0,28168360,197734
OK,70,41,930,70,2014-10-01T20:10:00,0,28168805,197734
OK,70,41,930,70,2014-10-01T20:15:00,0,28169254,197734
OK,93,31,930,93,2014-10-01T20:20:00,1,28169702,197734
OK,93,31,930,93,2014-10-01T20:25:00,0,28170128,197734
OK,93,31,930,93,2014-10-01T20:30:00,0,28170573,197734
OK,93,31,930,93,2014-10-01T20:35:00,0,28171021,197734
OK,93,31,930,93,2014-10-01T20:40:00,0,28171458,197734
OK,93,31,930,93,2014-10-01T20:45:00,0,28171904,197734
OK,93,31,930,93,2014-10-01T20:50:00,0,28172352,197734
OK,93,31,930,93,2014-10-01T20:55:00,0,28172798,197734
OK,93,31,930,93,2014-10-01T21:00:00,0,28173244,197734
OK,93,31,930,93,2014-10-01T21:05:00,0,28173693,197734
OK,93,31,930,93,2014-10-01T21:10:00,0,28174134,197734
OK,93,31,930,93,2014-10-01T21:15:00,0,28174583,197734
OK,93,31,930,93,2014-10-01T21:20:00,0,28175009,197734
OK,93,31,930,93,2014-10-01T21:25:00,0,28175405,197734
OK,93,31,930,93,2014-10-01T21:30:00,0,28175854,197734
OK,93,31,930,93,2014-10-01T21:35:00,0,28176303,197734
OK,93,31,930,93,2014-10-01T21:40:00,0,28176752,197734
OK,93,31,930,93,2014-10-01T21:45:00,0,28177108,197734
OK,93,31,930,93,2014-10-01T21:50:00,0,28177548,197734
OK,93,31,930,93,2014-10-01T21:55:00,0,28177994,197734
OK,93,31,930,93,2014-10-01T22:00:00,0,28178443,197734
OK,93,31,930,93,2014-10-01T22:05:00,0,28178890,197734
OK,93,31,930,93,2014-10-01T22:10:00,0,28179324,197734
OK,93,31,930,93,2014-10-01T22:15:00,0,28179767,197734
OK,93,31,930,93,2014-10-01T22:20:00,0,28180214,197734
OK,93,31,930,93,2014-10-01T22:25:00,0,28180612,197734
OK,93,31,930,93,2014-10-01T22:30:00,0,28181061,197734
OK,93,31,930,93,2014-10-01T22:35:00,0,28181485,197734
OK,93,31,930,93,2014-10-01T22:40:00,0,28181933,197734
OK,93,31,930,93,2014-10-01T22:45:00,0,28182380,197734
OK,93,31,930,93,2014-10-01T22:50:00,0,28182829,197734
OK,93,31,930,93,2014-10-01T22:55:00,0,28183246,197734
OK,93,31,930,93,2014-10-01T23:00:00,0,28183679,197734
OK,93,31,930,93,2014-10-01T23:05:00,0,28184124,197734
OK,93,31,930,93,2014-10-01T23:10:00,0,28184573,197734
OK,93,31,930,93,2014-10-01T23:15:00,0,28185008,197734
OK,93,31,930,93,2014-10-01T23:20:00,0,28185456,197734
OK,93,31,930,93,2014-10-01T23:25:00,0,28185887,197734
OK,93,31,930,93,2014-10-01T23:30:00,0,28186279,197734
OK,93,31,930,93,2014-10-01T23:40:00,0,28187126,197734
OK,93,31,930,93,2014-10-01T23:55:00,0,28188458,197734
OK,93,31,930,93,2014-10-02T00:05:00,0,28189343,197734
OK,93,31,930,93,2014-10-02T00:10:00,0,28189765,197734
OK,93,31,930,93,2014-10-02T00:15:00,0,28190214,197734
OK,93,31,930,93,2014-10-02T00:20:00,0,28190567,197734
OK,93,31,930,93,2014-10-02T00:30:00,0,28191465,197734
OK,93,31,930,93,2014-10-02T00:35:00,0,28191771,197734
OK,93,31,930,93,2014-10-02T00:40:00,0,28192220,197734
OK,93,31,930,93,2014-10-02T00:45:00,0,28192653,197734
OK,93,31,930,93,2014-10-02T00:50:00,0,28193097,197734
OK,93,31,930,93,2014-10-02T00:55:00,0,28193464,197734
OK,93,31,930,93,2014-10-02T01:05:00,0,28194362,197734
OK,93,31,930,93,2014-10-02T01:10:00,0,28194811,197734
OK,93,31,930,93,2014-10-02T01:15:00,0,28195050,197734
OK,93,31,930,93,2014-10-02T01:25:00,0,28195945,197734
OK,93,31,930,93,2014-10-02T01:30:00,0,28196238,197734
OK,93,31,930,93,2014-10-02T01:35:00,0,28196678,197734
OK,93,31,930,93,2014-10-02T01:40:00,0,28197101,197734
OK,93,31,930,93,2014-10-02T01:45:00,0,28197550,197734
OK,93,31,930,93,2014-10-02T01:50:00,0,28197998,197734
OK,93,31,930,93,2014-10-02T01:55:00,0,28198446,197734
OK,93,31,930,93,2014-10-02T02:00:00,0,28198895,197734
OK,93,31,930,93,2014-10-02T02:05:00,0,28199267,197734
OK,93,31,930,93,2014-10-02T02:10:00,0,28199709,197734
OK,93,31,930,93,2014-10-02T02:15:00,0,28200151,197734
OK,93,31,930,93,2014-10-02T02:20:00,0,28200594,197734
OK,93,31,930,93,2014-10-02T02:25:00,0,28201043,197734
OK,93,31,930,93,2014-10-02T02:30:00,0,28201474,197734
OK,93,31,930,93,2014-10-02T02:45:00,0,28202372,197734
OK,93,31,930,93,2014-10-02T02:50:00,0,28202814,197734
OK,93,31,930,93,2014-10-02T02:55:00,0,28203262,197734
OK,93,31,930,93,2014-10-02T03:00:00,0,28203697,197734
OK,93,31,930,93,2014-10-02T03:10:00,0,28204146,197734
OK,93,31,930,93,2014-10-02T03:25:00,0,28204595,197734
OK,93,31,930,93,2014-10-02T03:30:00,0,28205044,197734
OK,119,24,930,119,2014-10-02T03:35:00,1,28205472,197734
OK,119,24,930,119,2014-10-02T03:40:00,1,28205919,197734
OK,71,41,930,71,2014-10-02T03:45:00,1,28206302,197734
OK,71,41,930,71,2014-10-02T03:55:00,0,28207200,197734
OK,71,41,930,71,2014-10-02T04:00:00,1,28207620,197734
OK,71,41,930,71,2014-10-02T04:05:00,0,28208068,197734
OK,71,41,930,71,2014-10-02T04:10:00,0,28208495,197734
OK,71,41,930,71,2014-10-02T04:15:00,0,28208944,197734
OK,71,41,930,71,2014-10-02T04:20:00,0,28209382,197734
OK,71,41,930,71,2014-10-02T04:25:00,0,28209831,197734
OK,71,41,930,71,2014-10-02T04:30:00,0,28210254,197734
OK,71,41,930,71,2014-10-02T04:35:00,0,28210703,197734
OK,94,31,930,94,2014-10-02T04:40:00,1,28211128,197734
OK,94,31,930,94,2014-10-02T04:45:00,1,28211572,197734
OK,94,31,930,94,2014-10-02T04:50:00,0,28211950,197734
OK,171,17,930,171,2014-10-02T04:55:00,1,28212399,197734
OK,171,17,930,171,2014-10-02T05:00:00,0,28212828,197734
OK,171,17,930,171,2014-10-02T05:05:00,0,28213277,197734
OK,171,17,930,171,2014-10-02T05:10:00,0,28213715,197734
OK,98,29,930,98,2014-10-02T05:15:00,6,28214164,197734
OK,80,36,930,80,2014-10-02T05:20:00,2,28214577,197734
OK,128,22,930,128,2014-10-02T05:25:00,0,28215026,197734
OK,128,22,930,128,2014-10-02T05:30:00,0,28215442,197734
OK,128,22,930,128,2014-10-02T05:35:00,0,28215891,197734
OK,202,14,930,202,2014-10-02T05:40:00,4,28216233,197734
OK,203,14,930,203,2014-10-02T05:45:00,1,28216670,197734
OK,203,14,930,203,2014-10-02T05:50:00,0,28217117,197734
OK,267,10,930,267,2014-10-02T05:55:00,7,28217566,197734
OK,352,8,930,352,2014-10-02T06:00:00,5,28218005,197734
OK,394,7,930,394,2014-10-02T06:05:00,3,28218454,197734
OK,394,7,930,394,2014-10-02T06:10:00,1,28218874,197734
OK,321,9,930,321,2014-10-02T06:15:00,3,28219323,197734
OK,291,10,930,291,2014-10-02T06:20:00,4,28219696,197734
OK,174,16,930,174,2014-10-02T06:25:00,10,28220145,197734
OK,157,18,930,157,2014-10-02T06:30:00,8,28220579,197734
OK,119,24,930,119,2014-10-02T06:35:00,2,28221028,197734
OK,67,43,930,67,2014-10-02T06:40:00,5,28221409,197734
OK,66,44,930,66,2014-10-02T06:45:00,6,28221695,197734
OK,77,38,930,77,2014-10-02T07:00:00,1,28222289,197734
OK,85,34,930,85,2014-10-02T07:05:00,2,28222738,197734
OK,93,31,930,93,2014-10-02T07:10:00,1,28223169,197734
OK,93,31,930,93,2014-10-02T07:15:00,0,28223604,197734
OK,93,31,930,93,2014-10-02T07:20:00,0,28224052,197734
OK,83,35,930,83,2014-10-02T07:25:00,0,28224407,197734
OK,83,35,930,83,2014-10-02T07:30:00,0,28224856,197734
OK,106,27,930,106,2014-10-02T07:35:00,1,28225305,197734
OK,106,27,930,106,2014-10-02T07:40:00,1,28225627,197734
OK,90,32,930,90,2014-10-02T07:50:00,2,28226517,197734
OK,76,38,930,76,2014-10-02T07:55:00,3,28226966,197734
OK,76,38,930,76,2014-10-02T08:00:00,1,28227381,197734
OK,67,43,930,67,2014-10-02T08:05:00,3,28227830,197734
OK,95,30,930,95,2014-10-02T08:10:00,1,28228189,197734
OK,93,31,930,93,2014-10-02T08:15:00,1,28228638,197734
OK,93,31,930,93,2014-10-02T08:20:00,0,28229048,197734
OK,132,22,930,132,2014-10-02T08:25:00,2,28229497,197734
OK,88,33,930,88,2014-10-02T08:30:00,1,28229847,197734
OK,84,34,930,84,2014-10-02T08:35:00,0,28230296,197734
OK,84,34,930,84,2014-10-02T08:40:00,0,28230662,197734
OK,84,34,930,84,2014-10-02T08:45:00,0,28231111,197734
OK,60,48,930,60,2014-10-02T08:50:00,2,28231534,197734
OK,43,68,930,43,2014-10-02T08:55:00,1,28231983,197734
OK,89,32,930,89,2014-10-02T09:00:00,4,28232325,197734
OK,94,31,930,94,2014-10-02T09:10:00,0,28232774,197734
OK,94,31,930,94,2014-10-02T09:15:00,0,28233223,197734
OK,94,31,930,94,2014-10-02T09:20:00,0,28233647,197734
OK,94,31,930,94,2014-10-02T09:25:00,0,28234096,197734
OK,94,31,930,94,2014-10-02T09:30:00,0,28234429,197734
OK,231,12,930,231,2014-10-02T09:35:00,1,28234878,197734
OK,231,12,930,231,2014-10-02T09:40:00,1,28235305,197734
OK,112,26,930,112,2014-10-02T09:45:00,4,28235754,197734
OK,139,21,930,139,2014-10-02T09:50:00,1,28236197,197734
OK,82,35,930,82,2014-10-02T09:55:00,1,28236644,197734
OK,82,35,930,82,2014-10-02T10:00:00,0,28237047,197734
OK,82,35,930,82,2014-10-02T10:05:00,0,28237495,197734
OK,81,36,930,81,2014-10-02T10:10:00,3,28237943,197734
OK,41,71,930,41,2014-10-02T10:15:00,1,28238390,197734
OK,128,22,930,128,2014-10-02T10:20:00,1,28238831,197734
OK,128,22,930,128,2014-10-02T10:25:00,1,28239280,197734
OK,128,22,930,128,2014-10-02T10:30:00,0,28239710,197734
OK,127,23,930,127,2014-10-02T10:35:00,2,28240159,197734
OK,86,34,930,86,2014-10-02T10:40:00,2,28240603,197734
OK,86,34,930,86,2014-10-02T10:45:00,2,28241052,197734
OK,114,25,930,114,2014-10-02T10:50:00,0,28241484,197734
OK,102,28,930,102,2014-10-02T10:55:00,2,28241932,197734
OK,71,41,930,71,2014-10-02T11:00:00,1,28242328,197734
OK,71,41,930,71,2014-10-02T11:05:00,0,28242777,197734
OK,71,41,930,71,2014-10-02T11:10:00,0,28243226,197734
OK,71,41,930,71,2014-10-02T11:15:00,0,28243557,197734
OK,71,41,930,71,2014-10-02T11:20:00,0,28243989,197734
OK,71,41,930,71,2014-10-02T11:25:00,0,28244418,197734
OK,71,41,930,71,2014-10-02T11:30:00,0,28244867,197734
OK,62,47,930,62,2014-10-02T11:35:00,0,28245316,197734
OK,62,47,930,62,2014-10-02T11:40:00,0,28245722,197734
OK,62,47,930,62,2014-10-02T11:45:00,0,28246171,197734
OK,128,22,930,128,2014-10-02T11:50:00,5,28246608,197734
OK,127,23,930,127,2014-10-02T11:55:00,3,28247057,197734
OK,127,23,930,127,2014-10-02T12:00:00,0,28247503,197734
OK,127,23,930,127,2014-10-02T12:05:00,0,28247933,197734
OK,127,23,930,127,2014-10-02T12:10:00,0,28248382,197734
OK,75,39,930,75,2014-10-02T12:15:00,5,28248829,197734
OK,67,43,930,67,2014-10-02T12:20:00,2,28249257,197734
OK,67,43,930,67,2014-10-02T12:25:00,0,28249701,197734
OK,67,43,930,67,2014-10-02T12:30:00,0,28250120,197734
OK,141,20,930,141,2014-10-02T12:35:00,4,28250518,197734
OK,73,40,930,73,2014-10-02T13:20:00,2,28251843,197734
OK,100,29,930,100,2014-10-02T13:30:00,1,28252427,197734
OK,100,29,930,100,2014-10-02T13:35:00,0,28252869,197734
OK,100,29,930,100,2014-10-02T13:40:00,0,28253286,197734
OK,218,13,930,218,2014-10-02T13:45:00,1,28253735,197734
OK,218,13,930,218,2014-10-02T13:50:00,1,28254140,197734
OK,123,23,930,123,2014-10-02T13:55:00,3,28254461,197734
OK,98,29,930,98,2014-10-02T14:10:00,2,28255038,197734
OK,139,21,930,139,2014-10-02T14:15:00,0,28255487,197734
OK,139,21,930,139,2014-10-02T14:20:00,0,28255915,197734
OK,139,21,930,139,2014-10-02T14:25:00,0,28256364,197734
OK,233,12,930,233,2014-10-02T14:30:00,2,28256792,197734
OK,176,16,930,176,2014-10-02T14:35:00,3,28257241,197734
OK,121,24,930,121,2014-10-02T14:40:00,1,28257682,197734
OK,158,18,930,158,2014-10-02T14:45:00,2,28258130,197734
OK,158,18,930,158,2014-10-02T14:50:00,4,28258563,197734
OK,172,17,930,172,2014-10-02T14:55:00,2,28259009,197734
OK,176,16,930,176,2014-10-02T15:00:00,2,28259458,197734
OK,151,19,930,151,2014-10-02T15:05:00,1,28259905,197734
OK,151,19,930,151,2014-10-02T15:10:00,0,28260338,197734
OK,151,19,930,151,2014-10-02T15:15:00,0,28260787,197734
OK,151,19,930,151,2014-10-02T15:20:00,0,28261227,197734
OK,125,23,930,125,2014-10-02T15:25:00,2,28261609,197734
OK,125,23,930,125,2014-10-02T15:30:00,2,28262039,197734
OK,146,20,930,146,2014-10-02T15:40:00,0,28262932,197734
OK,104,28,930,104,2014-10-02T15:45:00,2,28263370,197734
OK,104,28,930,104,2014-10-02T15:50:00,2,28263811,197734
OK,85,34,930,85,2014-10-02T15:55:00,0,28264213,197734